This is the latest recevied weather packets stored in our database for station/object K4KMJ. If no packets are shown the sender has not sent any weather packets the latest 10 day(s).
| Time | Temp. | Humidity | Pressure | Rain* | Wind** | Luminosity | Snow |
|---|---|---|---|---|---|---|---|
| 1777991330 | 25.56° C | 73% | 1018.4 hPa | 0 mm | - | 654 W/m² | - |
| 1777991027 | 25.56° C | 76% | 1018.4 hPa | 0 mm | - | 636 W/m² | - |
| 1777990724 | 25° C | 77% | 1018.2 hPa | 0 mm | - | 612 W/m² | - |
| 1777990422 | 25° C | 78% | 1018.4 hPa | 0 mm | - | 371 W/m² | - |
| 1777989814 | 24.44° C | 80% | 1018.3 hPa | 0 mm | - | 595 W/m² | - |
| 1777989512 | 24.44° C | 80% | 1018.5 hPa | 0 mm | - | 180 W/m² | - |
| 1777989202 | 24.44° C | 80% | 1018.4 hPa | 0 mm | - | 557 W/m² | - |
| 1777988899 | 24.44° C | 81% | 1018.6 hPa | 0 mm | - | 555 W/m² | - |
| 1777988596 | 24.44° C | 81% | 1018.4 hPa | 0 mm | - | 527 W/m² | - |
| 1777988292 | 24.44° C | 81% | 1018.6 hPa | 0 mm | - | 517 W/m² | - |
| 1777987989 | 24.44° C | 82% | 1018.3 hPa | 0 mm | - | 475 W/m² | - |
| 1777987685 | 24.44° C | 82% | 1018.7 hPa | 0 mm | - | 525 W/m² | - |
| 1777987382 | 23.89° C | 83% | 1018.5 hPa | 0 mm | - | 459 W/m² | - |
| 1777987079 | 23.89° C | 83% | 1018.6 hPa | 0 mm | - | 457 W/m² | - |
| 1777986776 | 23.33° C | 84% | 1018.7 hPa | 0 mm | - | 208 W/m² | - |
| 1777986474 | 23.89° C | 84% | 1018.3 hPa | 0 mm | - | 158 W/m² | - |
| 1777986172 | 23.89° C | 85% | 1018.6 hPa | 0 mm | - | 361 W/m² | - |
| 1777985869 | 23.33° C | 86% | 1018.2 hPa | 0 mm | - | 327 W/m² | - |
| 1777985566 | 23.89° C | 88% | 1018.1 hPa | 0 mm | - | 299 W/m² | - |
| 1777985263 | 23.33° C | 89% | 1018.1 hPa | 0 mm | - | 276 W/m² | - |
| 1777984960 | 23.33° C | 91% | 1018.2 hPa | 0 mm | - | 258 W/m² | - |
| 1777984655 | 23.33° C | 92% | 1018.3 hPa | 0 mm | - | 244 W/m² | - |
| 1777984352 | 22.78° C | 94% | 1018.4 hPa | 0 mm | - | 229 W/m² | - |
| 1777984048 | 22.78° C | 95% | 1018.3 hPa | 0 mm | - | 214 W/m² | - |
| 1777983746 | 22.22° C | 96% | 1018.3 hPa | 0 mm | - | 202 W/m² | - |
* Rain latest hour (hover to see other rain measurements)
** Current wind speed in m/s (hover to see current wind gust speed)